Harlan, KY

3:33 PM EST on November 13, 2019 (GMT -0500)
Harlan

Weather History for KI35 - August, 2019

Change the Weather History Date:

Sunday, August 18, 2019

  Actual Average (KLOZ) Record (KLOZ)
Temperature  
Mean Temperature 78 °F -  
Max Temperature 91 °F 85 °F 98 °F (1988)
Min Temperature 64 °F 65 °F 54 °F (1976)
Cooling Degree Days 12    
Growing Degree Days 28 (Base 50)    
Moisture  
Dew Point 66 °F    
Average Humidity 74    
Maximum Humidity 99    
Minimum Humidity 38    
Precipitation  
Precipitation 0.00 in - - ()
Sea Level Pressure  
Sea Level Pressure 30.06 in    
Wind  
Wind Speed 1 mph (SW)    
Max Wind Speed 8 mph    
Max Gust Speed -    
Visibility 8 miles    
Events      
Averages and records for this station are not official NWS values.
T = Trace of Precipitation, MM = Missing Value Source: NWS Daily Summary

Daily Weather History Graph

Daily Weather History Graph

Search for Another Location

Airport or City:

Astronomy

Aug. 18, 2019 Rise Set
Actual Time 6:52 AM EDT 8:21 PM EDT
Civil Twilight 6:25 AM EDT 8:48 PM EDT
Nautical Twilight 5:52 AM EDT 9:21 PM EDT
Astronomical Twilight 5:17 AM EDT 9:55 PM EDT
Moon 10:19 PM EDT (8/18) 9:33 AM EDT (8/18)
Length of Visible Light 14h 23m
Length of Day
13h 28m
Waning Gibbous, 91% of the Moon is Illuminated
Aug 18
Waning Gibbous
Aug 23
Last Quarter
Aug 30
New
Sep 5
First Quarter
Sep 14
Full

Hourly Weather History & Observations

Time (EDT) Temp. Heat Index Dew Point Humidity Pressure Visibility Wind Dir Wind Speed Gust Speed Precip Events Conditions
12:15 AM 68.5 °F - 67.5 °F 96% 30.07 in 10.0 mi Calm Calm - N/A   Clear
12:35 AM 68.0 °F - 67.1 °F 97% 30.07 in 10.0 mi Calm Calm - N/A   Clear
1:55 AM 67.1 °F - 66.6 °F 98% 30.06 in 7.0 mi Calm Calm - N/A   Scattered Clouds
2:15 AM 66.4 °F - 66.0 °F 99% 30.05 in 7.0 mi Calm Calm - N/A   Scattered Clouds
2:35 AM 66.2 °F - 65.8 °F 99% 30.05 in 5.0 mi Calm Calm - N/A   Mostly Cloudy
2:55 AM 65.8 °F - 65.5 °F 99% 30.05 in 5.0 mi Calm Calm - N/A   Mostly Cloudy
3:15 AM 65.7 °F - 65.5 °F 99% 30.04 in 1.2 mi Calm Calm - N/A   Overcast
3:35 AM 65.3 °F - 64.9 °F 99% 30.04 in 5.0 mi Calm Calm - N/A   Mostly Cloudy
3:55 AM 65.5 °F - 65.3 °F 99% 30.04 in 7.0 mi Calm Calm - N/A   Mostly Cloudy
4:15 AM 65.3 °F - 64.8 °F 98% 30.04 in 5.0 mi Calm Calm - N/A   Mostly Cloudy
4:35 AM 65.3 °F - 64.9 °F 99% 30.05 in 7.0 mi Calm Calm - N/A   Mostly Cloudy
4:55 AM 65.5 °F - 65.3 °F 99% 30.05 in 2.5 mi East 3.5 mph - N/A   Overcast
5:15 AM 65.3 °F - 64.9 °F 99% 30.06 in 3.0 mi Calm Calm - N/A   Overcast
5:35 AM 65.1 °F - 64.8 °F 99% 30.06 in 2.5 mi Calm Calm - N/A   Overcast
5:55 AM 65.1 °F - 64.8 °F 99% 30.06 in 1.0 mi East 3.5 mph - N/A   Overcast
6:15 AM 65.1 °F - 64.9 °F 99% 30.06 in 1.5 mi Calm Calm - N/A   Overcast
6:35 AM 64.9 °F - 64.8 °F 99% 30.07 in 1.8 mi Calm Calm - N/A   Overcast
6:55 AM 65.1 °F - 64.8 °F 99% 30.07 in 2.5 mi Calm Calm - N/A   Overcast
7:15 AM 64.8 °F - 64.6 °F 99% 30.07 in 0.8 mi Calm Calm - N/A   Overcast
7:35 AM 64.6 °F - 64.4 °F 99% 30.07 in 0.8 mi Calm Calm - N/A   Overcast
7:55 AM 65.1 °F - 64.4 °F 98% 30.08 in 5.0 mi East 3.5 mph - N/A   Overcast
8:15 AM 65.5 °F - 64.6 °F 97% 30.10 in 5.0 mi East 3.5 mph - N/A   Overcast
8:35 AM 66.2 °F - 64.8 °F 95% 30.09 in 10.0 mi Calm Calm - N/A   Scattered Clouds
8:55 AM 66.4 °F - 64.9 °F 95% 30.10 in 10.0 mi Calm Calm - N/A   Mostly Cloudy
9:15 AM 69.1 °F - 66.0 °F 90% 30.10 in 10.0 mi Calm Calm - N/A   Scattered Clouds
9:35 AM 70.0 °F - 65.8 °F 87% 30.10 in 10.0 mi Calm Calm - N/A   Clear
9:55 AM 72.5 °F - 66.7 °F 82% 30.11 in 10.0 mi Calm Calm - N/A   Clear
10:15 AM 74.5 °F - 67.1 °F 78% 30.11 in 10.0 mi Calm Calm - N/A   Clear
10:35 AM 77.2 °F - 67.5 °F 72% 30.11 in 10.0 mi Calm Calm - N/A   Clear
10:55 AM 79.2 °F - 67.6 °F 68% 30.11 in 10.0 mi SE 3.5 mph - N/A   Clear
11:15 AM 81.3 °F 84.1 °F 68.0 °F 64% 30.11 in 10.0 mi Calm Calm - N/A   Clear
11:55 AM 84.6 °F 87.4 °F 67.5 °F 56% 30.11 in 10.0 mi SSW 3.5 mph - N/A   Clear
12:15 PM 84.9 °F 87.1 °F 66.2 °F 53% 30.10 in 10.0 mi Calm Calm - N/A   Clear
12:35 PM 86.9 °F 88.6 °F 65.3 °F 48% 30.10 in 10.0 mi SW 5.8 mph - N/A   Clear
12:55 PM 87.4 °F 88.5 °F 63.9 °F 45% 30.10 in 10.0 mi SW 6.9 mph - N/A   Clear
1:15 PM 88.9 °F 89.4 °F 62.6 °F 41% 30.10 in 10.0 mi SSW 8.1 mph - N/A   Clear
1:35 PM 88.3 °F 88.6 °F 61.9 °F 41% 30.10 in 10.0 mi WSW 4.6 mph - N/A   Clear
1:55 PM 89.4 °F 90.2 °F 62.8 °F 41% 30.09 in 10.0 mi South 6.9 mph - N/A   Clear
2:15 PM 89.2 °F 89.9 °F 62.4 °F 41% 30.09 in 10.0 mi SW 8.1 mph - N/A   Scattered Clouds
2:35 PM 89.6 °F 90.4 °F 62.8 °F 41% 30.08 in 10.0 mi SSW 8.1 mph - N/A   Clear
2:55 PM 90.5 °F 91.1 °F 62.6 °F 39% 30.07 in 10.0 mi SW 8.1 mph - N/A   Clear
3:15 PM 91.6 °F 92.3 °F 62.4 °F 38% 30.06 in 10.0 mi SW 4.6 mph - N/A   Scattered Clouds
3:35 PM 90.5 °F 90.7 °F 61.7 °F 38% 30.05 in 10.0 mi West 4.6 mph - N/A   Clear
3:55 PM 90.7 °F 91.7 °F 63.0 °F 40% 30.04 in 10.0 mi Calm Calm - N/A   Clear
4:15 PM 91.0 °F 92.2 °F 63.7 °F 40% 30.03 in 10.0 mi SSW 6.9 mph - N/A   Scattered Clouds
4:35 PM 91.6 °F 93.1 °F 64.0 °F 40% 30.03 in 10.0 mi West 6.9 mph - N/A   Scattered Clouds
4:55 PM 91.6 °F 92.7 °F 63.3 °F 39% 30.03 in 10.0 mi WNW 6.9 mph - N/A   Scattered Clouds
5:15 PM 90.7 °F 91.7 °F 63.3 °F 40% 30.03 in 10.0 mi SSW 5.8 mph - N/A   Clear
5:35 PM 90.1 °F 90.6 °F 62.1 °F 39% 30.02 in 10.0 mi WNW 6.9 mph - N/A   Clear
5:55 PM 90.7 °F 91.3 °F 62.8 °F 39% 30.02 in 10.0 mi SW 4.6 mph - N/A   Clear
6:15 PM 89.6 °F 90.4 °F 62.8 °F 41% 30.02 in 10.0 mi Calm Calm - N/A   Clear
6:35 PM 89.2 °F 90.9 °F 64.8 °F 44% 30.03 in 10.0 mi West 4.6 mph - N/A   Clear
6:55 PM 88.9 °F 90.7 °F 65.3 °F 45% 30.03 in 10.0 mi West 3.5 mph - N/A   Clear
7:15 PM 87.8 °F 89.7 °F 65.3 °F 47% 30.03 in 10.0 mi Calm Calm - N/A   Clear
7:35 PM 86.5 °F 89.3 °F 67.3 °F 52% 30.03 in 10.0 mi Calm Calm - N/A   Clear
7:55 PM 82.8 °F 86.0 °F 68.7 °F 62% 30.02 in 10.0 mi Calm Calm - N/A   Clear
8:15 PM 80.8 °F 83.5 °F 68.0 °F 65% 30.03 in 10.0 mi Calm Calm - N/A   Clear
8:35 PM 78.1 °F - 68.2 °F 71% 30.02 in 10.0 mi Calm Calm - N/A   Clear
8:55 PM 77.0 °F - 68.0 °F 74% 30.03 in 10.0 mi Calm Calm - N/A   Clear
9:15 PM 74.7 °F - 68.4 °F 81% 30.03 in 10.0 mi Calm Calm - N/A   Clear
9:35 PM 74.7 °F - 68.7 °F 82% 30.04 in 10.0 mi Calm Calm - N/A   Clear
9:55 PM 74.5 °F - 68.9 °F 83% 30.04 in 10.0 mi Calm Calm - N/A   Clear
10:15 PM 72.7 °F - 68.9 °F 88% 30.05 in 10.0 mi Calm Calm - N/A   Clear
10:35 PM 72.0 °F - 68.9 °F 90% 30.06 in 10.0 mi Calm Calm - N/A   Clear
10:55 PM 70.9 °F - 68.9 °F 93% 30.06 in 10.0 mi Calm Calm - N/A   Clear
11:15 PM 71.1 °F - 68.9 °F 93% 30.06 in 10.0 mi Calm Calm - N/A   Clear
11:35 PM 70.3 °F - 68.9 °F 95% 30.06 in 10.0 mi Calm Calm - N/A   Clear
11:55 PM 70.0 °F - 68.5 °F 95% 30.06 in 10.0 mi Calm Calm - N/A   Clear